Weather in Jiujiang

China     29°41′37″N   115°58′40″E
temp.,
°C
wind,
m/s
gust,
m/s
humid.,
%
clouds,
%
prec.,
mm/h
press.,
hPa
HPBL,
m
17 april, sat
sat1723:00+17wsw2389100 0.5 102085
02:00+15wsw349071 0.5 101981
05:00+14w3488100 0.0 102069
08:00+17nw3683100 0.0 1023407
11:00+19ene7842100 0.0 1024960
14:00+21ene6732100 0.0 10221140
17:00+19e4841100 0.0 1021442
20:00+17ene3846100 0.0 1023288
18 april, sun
sun1823:00+16ne4849100 0.0 1023294
02:00+14ne4952100 0.0 1021327
05:00+14ne4951100 0.0 1022343
08:00+15ne4854100 0.0 1022412
11:00+17ne4543100 0.0 1022599
14:00+17ne5747100 0.0 1019478
17:00+16ne2351100 0.0 1019188
20:00+14ssw3462100 0.0 1020122
19 april, mon
mon1923:00+12wsw2372100 0.0 1020160
02:00+12w1173100 0.0 1018138
05:00+13nne1172100 0.0 1018102
08:00+14se117085 0.0 1018314
11:00+16sse1265100 0.0 1018646
14:00+18ese126378 0.0 1016804
17:00+20ese336111 0.0 1014835
20:00+17sse23740 0.0 101582
20 april, tue
tue2023:00+15w11780 0.0 101627
02:00+15ese00805 0.0 101413
05:00+15se118135 0.0 101415
08:00+18ese247317 0.0 1015413
11:00+22ese456219 0.0 10151026
14:00+24se445799 0.0 10131291
17:00+24sse345719 0.0 10121073
20:00+21se237048 0.0 101396
21 april, wed
wed2123:00+21ese227480 0.0 101337
02:00+20sse127771 0.0 101250
05:00+19ese228653 0.3 101255
08:00+21se237754 0.8 1014362
11:00+24se346184 0.0 1014827
14:00+27se345393 0.0 10111186
17:00+25e1365100 0.4 1010366
20:00+21ese1385100 1.8 1012171